• In United Kingdom
  • List of Countries
  • For 7 days
  • Water Temperature
  • Satellite Maps
  • Weather Map
  • Weather Widgets
  • user-avatar
    Login

    Hourly Weather Selfoss

    Today, 18 June, Monday

    Time Temperature Precipitation Wind Pressure Humidity
    00:00 +8°C° 0.1 mm 5 mps 741 mmHg 80%
    01:00 +7°C° 0.1 mm 5 mps 741 mmHg 82%
    02:00 +7°C° 0.1 mm 5 mps 741 mmHg 83%
    03:00 +7°C° 0 mm 5 mps 741 mmHg 82%
    04:00 +8°C° 0 mm 6 mps 741 mmHg 81%
    05:00 +8°C° 0 mm 6 mps 741 mmHg 80%
    06:00 +9°C° 0 mm 6 mps 741 mmHg 77%
    07:00 +9°C° 0 mm 6 mps 741 mmHg 73%
    08:00 +10°C° 0 mm 7 mps 741 mmHg 70%
    09:00 +10°C° 0 mm 7 mps 741 mmHg 68%
    10:00 +11°C° 0 mm 7 mps 741 mmHg 66%
    11:00 +11°C° 0 mm 7 mps 741 mmHg 64%
    12:00 +12°C° 0 mm 8 mps 741 mmHg 63%
    13:00 +12°C° 0 mm 8 mps 741 mmHg 62%
    14:00 +12°C° 0 mm 8 mps 742 mmHg 61%
    15:00 +11°C° 0 mm 8 mps 742 mmHg 62%
    16:00 +11°C° 0 mm 9 mps 743 mmHg 63%
    17:00 +10°C° 0 mm 9 mps 743 mmHg 64%
    18:00 +10°C° 0 mm 8 mps 744 mmHg 66%
    19:00 +9°C° 0 mm 8 mps 744 mmHg 68%
    20:00 +8°C° 0 mm 7 mps 745 mmHg 70%
    21:00 +8°C° 0.1 mm 7 mps 745 mmHg 72%
    22:00 +6°C° 0.1 mm 7 mps 746 mmHg 74%
    23:00 +7°C° 0.1 mm 6 mps 746 mmHg 76%

    Tomorrow, 19 June, Tuesday

    Time Temperature Precipitation Wind Pressure Humidity
    00:00 +5°C° 0.4 mm 6 mps 747 mmHg 78%
    01:00 +5°C° 0.4 mm 6 mps 747 mmHg 80%
    02:00 +5°C° 0.4 mm 6 mps 747 mmHg 81%
    03:00 +6°C° 0.5 mm 5 mps 748 mmHg 81%
    04:00 +6°C° 0.5 mm 5 mps 748 mmHg 81%
    05:00 +6°C° 0.5 mm 5 mps 748 mmHg 81%
    06:00 +6°C° 0.5 mm 5 mps 749 mmHg 79%
    07:00 +5°C° 0.5 mm 6 mps 749 mmHg 78%
    08:00 +5°C° 0.5 mm 6 mps 750 mmHg 76%
    09:00 +7°C° 0.5 mm 6 mps 750 mmHg 74%
    10:00 +7°C° 0.5 mm 5 mps 750 mmHg 73%
    11:00 +7°C° 0.5 mm 5 mps 751 mmHg 72%
    12:00 +8°C° 0.7 mm 6 mps 751 mmHg 72%
    13:00 +8°C° 0.7 mm 6 mps 751 mmHg 71%
    14:00 +8°C° 0.7 mm 6 mps 752 mmHg 71%
    15:00 +8°C° 0.7 mm 6 mps 752 mmHg 72%
    16:00 +9°C° 0.7 mm 6 mps 752 mmHg 72%
    17:00 +9°C° 0.7 mm 6 mps 752 mmHg 73%
    18:00 +9°C° 0.4 mm 5 mps 753 mmHg 73%
    19:00 +8°C° 0.4 mm 5 mps 753 mmHg 73%
    20:00 +8°C° 0.4 mm 4 mps 753 mmHg 74%
    21:00 +8°C° 0.1 mm 4 mps 754 mmHg 75%
    22:00 +7°C° 0.1 mm 4 mps 754 mmHg 76%
    23:00 +7°C° 0.1 mm 3 mps 755 mmHg 77%

    Day after tomorrow, 20 June, Wednesday

    Time Temperature Precipitation Wind Pressure Humidity
    00:00 +7°C° 0 mm 3 mps 755 mmHg 77%
    01:00 +5°C° 0 mm 3 mps 755 mmHg 77%
    02:00 +5°C° 0 mm 3 mps 756 mmHg 77%
    03:00 +5°C° 0 mm 3 mps 756 mmHg 75%
    04:00 +7°C° 0 mm 3 mps 757 mmHg 73%
    05:00 +7°C° 0 mm 3 mps 757 mmHg 71%
    06:00 +8°C° 0 mm 3 mps 757 mmHg 66%
    07:00 +9°C° 0 mm 3 mps 758 mmHg 61%
    08:00 +10°C° 0 mm 3 mps 758 mmHg 56%
    09:00 +11°C° 0 mm 3 mps 759 mmHg 53%
    10:00 +12°C° 0 mm 4 mps 759 mmHg 51%
    11:00 +12°C° 0 mm 5 mps 760 mmHg 48%
    12:00 +12°C° 0 mm 5 mps 760 mmHg 48%
    13:00 +11°C° 0 mm 6 mps 761 mmHg 49%
    14:00 +11°C° 0 mm 7 mps 761 mmHg 50%
    15:00 +11°C° 0 mm 7 mps 762 mmHg 51%
    16:00 +11°C° 0 mm 7 mps 762 mmHg 53%
    17:00 +10°C° 0 mm 7 mps 762 mmHg 54%
    18:00 +9°C° 0 mm 6 mps 763 mmHg 57%
    19:00 +9°C° 0 mm 6 mps 763 mmHg 60%
    20:00 +8°C° 0 mm 5 mps 764 mmHg 62%
    21:00 +7°C° 0 mm 4 mps 764 mmHg 68%
    22:00 +6°C° 0 mm 4 mps 765 mmHg 74%
    23:00 +5°C° 0 mm 4 mps 765 mmHg 81%

    21 June, Thursday

    Time Temperature Precipitation Wind Pressure Humidity
    00:00 +5°C° 0 mm 3 mps 765 mmHg 83%
    01:00 +5°C° 0 mm 3 mps 765 mmHg 86%
    02:00 +5°C° 0 mm 2 mps 766 mmHg 89%
    03:00 +6°C° 0 mm 2 mps 766 mmHg 87%
    04:00 +5°C° 0 mm 3 mps 766 mmHg 84%
    05:00 +7°C° 0 mm 3 mps 766 mmHg 82%
    06:00 +8°C° 0 mm 3 mps 766 mmHg 79%
    07:00 +7°C° 0 mm 4 mps 766 mmHg 76%
    08:00 +8°C° 0 mm 4 mps 766 mmHg 73%
    09:00 +8°C° 0 mm 5 mps 766 mmHg 71%
    10:00 +9°C° 0 mm 5 mps 766 mmHg 70%
    11:00 +9°C° 0 mm 5 mps 766 mmHg 69%
    12:00 +9°C° 0.3 mm 6 mps 766 mmHg 74%
    13:00 +9°C° 0.3 mm 6 mps 765 mmHg 78%
    14:00 +9°C° 0.3 mm 7 mps 765 mmHg 83%
    15:00 +8°C° 0.7 mm 7 mps 765 mmHg 86%
    16:00 +8°C° 0.7 mm 7 mps 765 mmHg 89%
    17:00 +8°C° 0.7 mm 7 mps 764 mmHg 92%
    18:00 +8°C° 1 mm 7 mps 764 mmHg 93%
    19:00 +8°C° 1 mm 7 mps 764 mmHg 93%
    20:00 +8°C° 1 mm 7 mps 764 mmHg 93%
    21:00 +8°C° 1 mm 7 mps 763 mmHg 94%
    22:00 +8°C° 1 mm 7 mps 763 mmHg 95%
    23:00 +9°C° 1 mm 6 mps 763 mmHg 95%

    22 June, Friday

    Time Temperature Precipitation Wind Pressure Humidity
    00:00 +9°C° 0.3 mm 6 mps 763 mmHg 96%
    01:00 +9°C° 0.3 mm 6 mps 763 mmHg 96%
    02:00 +9°C° 0.3 mm 5 mps 763 mmHg 97%
    03:00 +9°C° 0.1 mm 5 mps 763 mmHg 96%
    04:00 +9°C° 0.1 mm 5 mps 763 mmHg 96%
    05:00 +8°C° 0.1 mm 5 mps 763 mmHg 95%
    06:00 +9°C° 0 mm 5 mps 763 mmHg 94%
    07:00 +10°C° 0 mm 4 mps 764 mmHg 93%
    08:00 +10°C° 0 mm 4 mps 764 mmHg 91%
    09:00 +10°C° 0 mm 4 mps 764 mmHg 89%
    10:00 +10°C° 0 mm 4 mps 764 mmHg 87%
    11:00 +11°C° 0 mm 4 mps 764 mmHg 85%
    12:00 +11°C° 0 mm 4 mps 764 mmHg 83%
    13:00 +11°C° 0 mm 4 mps 764 mmHg 82%
    14:00 +11°C° 0 mm 4 mps 764 mmHg 81%
    15:00 +11°C° 0 mm 4 mps 764 mmHg 81%
    16:00 +11°C° 0 mm 4 mps 764 mmHg 81%
    17:00 +12°C° 0 mm 3 mps 764 mmHg 81%
    18:00 +11°C° 0.2 mm 4 mps 764 mmHg 83%
    19:00 +11°C° 0.2 mm 4 mps 764 mmHg 86%
    20:00 +11°C° 0.2 mm 4 mps 764 mmHg 88%
    21:00 +10°C° 0.7 mm 4 mps 764 mmHg 90%
    22:00 +10°C° 0.7 mm 3 mps 763 mmHg 92%
    23:00 +10°C° 0.7 mm 3 mps 763 mmHg 94%

    23 June, Saturday

    Time Temperature Precipitation Wind Pressure Humidity
    00:00 +10°C° 0.3 mm 3 mps 763 mmHg 95%
    01:00 +10°C° 0.3 mm 3 mps 762 mmHg 95%
    02:00 +10°C° 0.3 mm 3 mps 762 mmHg 96%
    03:00 +10°C° 0.5 mm 4 mps 762 mmHg 96%
    04:00 +11°C° 0.5 mm 4 mps 761 mmHg 96%
    05:00 +10°C° 0.5 mm 5 mps 760 mmHg 96%
    06:00 +10°C° 1.2 mm 6 mps 760 mmHg 96%
    07:00 +10°C° 1.2 mm 7 mps 759 mmHg 95%
    08:00 +10°C° 1.2 mm 7 mps 758 mmHg 95%
    09:00 +10°C° 3.3 mm 9 mps 757 mmHg 95%
    10:00 +9°C° 3.3 mm 10 mps 756 mmHg 95%
    11:00 +9°C° 3.3 mm 11 mps 755 mmHg 94%
    12:00 +9°C° 3.2 mm 11 mps 754 mmHg 95%
    13:00 +9°C° 3.2 mm 11 mps 753 mmHg 95%
    14:00 +9°C° 3.2 mm 11 mps 752 mmHg 95%
    15:00 +9°C° 1.4 mm 11 mps 751 mmHg 95%
    16:00 +9°C° 1.4 mm 10 mps 750 mmHg 95%
    17:00 +9°C° 1.4 mm 10 mps 750 mmHg 96%
    18:00 +10°C° 0.6 mm 9 mps 750 mmHg 95%
    19:00 +8°C° 0.6 mm 9 mps 751 mmHg 95%
    20:00 +9°C° 0.6 mm 8 mps 751 mmHg 94%
    21:00 +9°C° 0.2 mm 8 mps 751 mmHg 94%
    22:00 +9°C° 0.2 mm 8 mps 752 mmHg 94%
    23:00 +7°C° 0.2 mm 8 mps 752 mmHg 94%
    Show more